Weather History for Norfolk, NE

Change the Weather History Date:

Thursday, September 20, 2012

  Actual Average Record
Temperature  
Mean Temperature 59 °F 62 °F  
Max Temperature 74 °F 75 °F 100 °F (1895)
Min Temperature 44 °F 49 °F 24 °F (1918)
Degree Days  
Heating Degree Days 6 5  
Month to date heating degree days 39 58  
Since 1 July heating degree days 50 74  
Cooling Degree Days 0 2  
Month to date cooling degree days 106 78  
Year to date cooling degree days 1373 894  
Growing Degree Days 8 (Base 50)    
Moisture  
Dew Point 35 °F    
Average Humidity 44    
Maximum Humidity 65    
Minimum Humidity 22    
Precipitation  
Precipitation T in 0.09 in 2.07 in (1902)
Month to date precipitation 0.61 1.79  
Year to date precipitation 12.45 22.32  
Snow  
Snow 0.00 in 0.00 in - ()
Month to date snowfall 0.0 0.0  
Since 1 July snowfall 0.0 0.0  
Snow Depth 0.00 in    
Sea Level Pressure  
Sea Level Pressure 30.01 in    
Wind  
Wind Speed 4 mph (West)    
Max Wind Speed 17 mph    
Max Gust Speed 22 mph    
Visibility 10 miles    
Events      
T = Trace of Precipitation, MM = Missing Value Source: NWS Daily Summary

Daily Weather History Graph

Daily Weather History Graph

Search for Another Location

Airport:

Trip Planner

Search our weather history database for the weather conditions in past years. The results will help you decide how hot, cold, wet, or windy it might be!

Date:

Astronomy

Sep. 20, 2012 Rise Set
Actual Time 7:15 AM CDT 7:29 PM CDT
Civil Twilight 6:47 AM CDT 7:57 PM CDT
Nautical Twilight 6:14 AM CDT 8:30 PM CDT
Astronomical Twilight 5:41 AM CDT 9:03 PM CDT
Moon 12:41 PM CDT (9/20) 10:26 PM CDT (9/20)
Length of Visible Light 13h 09m
Length of Day
12h 13m
Waxing Crescent, 27% of the Moon is Illuminated
Sep 20
Waxing Crescent
Sep 22
First Quarter
Sep 29
Full
Oct 8
Last Quarter
Oct 15
New

Hourly Weather History & Observations

Time (CDT) Temp. Windchill Dew Point Humidity Pressure Visibility Wind Dir Wind Speed Gust Speed Precip Events Conditions
12:56 AM 50.0 °F - 34.0 °F 54% 30.01 in 10.0 mi WSW 4.6 mph - N/A   Clear
1:56 AM 50.0 °F - 35.1 °F 57% 30.01 in 10.0 mi Calm Calm - N/A   Clear
2:56 AM 46.0 °F 43.9 °F 35.1 °F 66% 30.03 in 10.0 mi WSW 4.6 mph - N/A   Clear
3:56 AM 48.0 °F - 34.0 °F 58% 30.03 in 10.0 mi Calm Calm - N/A   Clear
4:56 AM 46.0 °F - 35.1 °F 66% 30.03 in 10.0 mi Calm Calm - N/A   Clear
5:56 AM 45.0 °F 43.5 °F 34.0 °F 65% 30.04 in 10.0 mi WSW 3.5 mph - N/A   Clear
6:56 AM 44.1 °F 42.5 °F 34.0 °F 68% 30.06 in 10.0 mi West 3.5 mph - N/A   Clear
7:56 AM 44.1 °F - 34.0 °F 68% 30.07 in 10.0 mi Calm Calm - N/A   Clear
8:56 AM 50.0 °F - 35.1 °F 57% 30.07 in 10.0 mi West 3.5 mph - N/A   Clear
9:56 AM 57.9 °F - 30.9 °F 36% 30.06 in 10.0 mi WNW 5.8 mph - N/A   Partly Cloudy
10:56 AM 64.0 °F - 30.0 °F 28% 30.06 in 10.0 mi WNW 8.1 mph - N/A   Partly Cloudy
11:56 AM 64.0 °F - 37.9 °F 38% 30.06 in 10.0 mi WNW 8.1 mph - 0.00 in   Overcast
12:56 PM 69.1 °F - 32.0 °F 25% 30.03 in 10.0 mi West 6.9 mph 17.3 mph 0.00 in   Mostly Cloudy
1:56 PM 70.0 °F - 32.0 °F 25% 30.01 in 10.0 mi NW 9.2 mph - N/A   Scattered Clouds
3:56 PM 72.0 °F - 35.1 °F 26% 29.97 in 10.0 mi Variable 5.8 mph - N/A   Clear
4:56 PM 72.0 °F - 34.0 °F 25% 29.96 in 10.0 mi Calm Calm - N/A   Clear
5:56 PM 70.0 °F - 34.0 °F 27% 29.95 in 10.0 mi NE 4.6 mph - N/A   Clear
6:56 PM 66.9 °F - 36.0 °F 32% 29.94 in 10.0 mi East 4.6 mph - N/A   Clear
7:56 PM 63.0 °F - 37.9 °F 40% 29.95 in 10.0 mi East 4.6 mph - N/A   Partly Cloudy
8:56 PM 62.1 °F - 39.0 °F 43% 29.96 in 10.0 mi ESE 3.5 mph - N/A   Mostly Cloudy
9:56 PM 60.1 °F - 37.9 °F 44% 29.95 in 10.0 mi East 3.5 mph - N/A   Clear
10:56 PM 57.9 °F - 39.0 °F 49% 29.94 in 10.0 mi SSE 3.5 mph - N/A   Clear
11:56 PM 60.1 °F - 37.9 °F 44% 29.91 in 10.0 mi South 10.4 mph - N/A   Clear